Weather History for Cut Bank, MT

Change the Weather History Date:

Thursday, January 17, 2013

  Actual Average Record
Temperature  
Mean Temperature 37 °F 22 °F  
Max Temperature 44 °F 33 °F 52 °F (1976)
Min Temperature 30 °F 12 °F -36 °F (1950)
Degree Days  
Heating Degree Days 28 43  
Month to date heating degree days 684 734  
Since 1 July heating degree days 4209 4324  
Cooling Degree Days 0 0  
Month to date cooling degree days 0 0  
Year to date cooling degree days 0 0  
Moisture  
Dew Point 22 °F    
Average Humidity 56    
Maximum Humidity 69    
Minimum Humidity 43    
Precipitation  
Precipitation 0.00 in 0.00 in 0.25 in (1924)
Month to date precipitation 0.41 0.11  
Year to date precipitation 0.41 0.11  
Snow  
Snow 0.00 in - - ()
Snow Depth 1.00 in    
Sea Level Pressure  
Sea Level Pressure 30.12 in    
Wind  
Wind Speed 29 mph (WSW)    
Max Wind Speed 54 mph    
Max Gust Speed 64 mph    
Visibility 10 miles    
Events      
T = Trace of Precipitation, MM = Missing Value Source: NWS Daily Summary

Daily Weather History Graph

Daily Weather History Graph

Search for Another Location

Airport:

Trip Planner

Search our weather history database for the weather conditions in past years. The results will help you decide how hot, cold, wet, or windy it might be!

Date:

Astronomy

Jan. 17, 2013 Rise Set
Actual Time 8:14 AM MST 5:05 PM MST
Civil Twilight 7:39 AM MST 5:40 PM MST
Nautical Twilight 7:00 AM MST 6:19 PM MST
Astronomical Twilight 6:23 AM MST 6:56 PM MST
Moon 10:47 AM MST No Moon Set
Length of Visible Light 10h 00m
Length of Day
8h 50m
Waxing Crescent, 38% of the Moon is Illuminated
Jan 17
Waxing Crescent
Jan 18
First Quarter
Jan 26
Full
Feb 3
Last Quarter
Feb 10
New

Hourly Weather History & Observations

Time (MST) Temp. Windchill Dew Point Humidity Pressure Visibility Wind Dir Wind Speed Gust Speed Precip Events Conditions
12:56 AM 36.0 °F 24.4 °F 24.1 °F 62% 30.27 in 10.0 mi West 23.0 mph - N/A   Clear
1:56 AM 36.0 °F 25.0 °F 23.0 °F 59% 30.27 in 10.0 mi West 20.7 mph - N/A   Clear
2:56 AM 36.0 °F 25.3 °F 23.0 °F 59% 30.27 in 10.0 mi West 19.6 mph - N/A   Clear
3:56 AM 30.9 °F 21.7 °F 21.9 °F 69% 30.27 in 10.0 mi West 11.5 mph - N/A   Clear
4:56 AM 37.4 °F 25.9 °F 21.2 °F 52% 30.16 in 10.0 mi West 25.3 mph - N/A   Clear
5:56 AM 36.0 °F 25.0 °F 21.9 °F 57% 30.22 in 10.0 mi West 20.7 mph - N/A   Clear
6:56 AM 36.0 °F 24.4 °F 21.9 °F 57% 30.22 in 10.0 mi WSW 23.0 mph - N/A   Clear
7:56 AM 37.0 °F 25.1 °F 21.0 °F 52% 30.21 in 10.0 mi WSW 26.5 mph - N/A   Clear
8:56 AM 36.0 °F 24.4 °F 21.0 °F 55% 30.22 in 10.0 mi WSW 23.0 mph - N/A   Clear
9:56 AM 39.0 °F 28.3 °F 21.9 °F 50% 30.21 in 10.0 mi WSW 24.2 mph 31.1 mph N/A   Clear
10:56 AM 39.9 °F 27.6 °F 21.9 °F 49% 30.19 in 10.0 mi West 34.5 mph 46.0 mph N/A   Clear
11:56 AM 42.1 °F 30.4 °F 23.0 °F 47% 30.15 in 10.0 mi West 35.7 mph 47.2 mph N/A   Clear
12:56 PM 42.1 °F 30.1 °F 24.1 °F 49% 30.10 in 10.0 mi West 38.0 mph 48.3 mph N/A   Clear
1:56 PM 42.1 °F 30.3 °F 24.1 °F 49% 30.08 in 10.0 mi WSW 36.8 mph 44.9 mph N/A   Clear
2:56 PM 42.1 °F 31.1 °F 24.1 °F 49% 30.07 in 10.0 mi WSW 31.1 mph 46.0 mph N/A   Clear
3:56 PM 41.0 °F 28.3 °F 24.1 °F 51% 30.04 in 10.0 mi West 40.3 mph 50.6 mph N/A   Clear
4:56 PM 41.0 °F 27.7 °F 23.0 °F 49% 29.99 in 10.0 mi WSW 44.9 mph 57.5 mph N/A   Clear
5:56 PM 41.0 °F 28.5 °F 23.0 °F 49% 30.05 in 10.0 mi WSW 39.1 mph 47.2 mph N/A   Clear
6:56 PM 39.9 °F 28.6 °F 23.0 °F 51% 30.06 in 10.0 mi WSW 28.8 mph 38.0 mph N/A   Clear
7:56 PM 39.0 °F 29.0 °F 23.0 °F 53% 30.04 in 10.0 mi WSW 20.7 mph - N/A   Clear
8:56 PM 42.1 °F 31.3 °F 21.9 °F 45% 29.99 in 10.0 mi WSW 29.9 mph 39.1 mph N/A   Clear
9:56 PM 41.0 °F 29.0 °F 21.0 °F 45% 29.96 in 10.0 mi West 35.7 mph 46.0 mph N/A   Clear
10:56 PM 39.0 °F 27.0 °F 21.9 °F 50% 29.95 in 10.0 mi West 31.1 mph 42.6 mph N/A   Clear
11:56 PM 39.2 °F 28.3 °F 19.4 °F 45% 29.90 in 10.0 mi WSW 25.3 mph - N/A   Clear